Weather History for Tomahawk, WI

Change the Weather History Date:

Sunday, January 6, 2013

  Actual Average (KRHI) Record (KRHI)
Temperature  
Mean Temperature 19 °F 12 °F  
Max Temperature 28 °F 21 °F 43 °F (1928)
Min Temperature 10 °F 3 °F -40 °F (1912)
Degree Days  
Heating Degree Days 46 53  
Month to date heating degree days 313  
Since 1 July heating degree days 3939  
Cooling Degree Days 0 0  
Month to date cooling degree days 0  
Year to date cooling degree days 0  
Moisture  
Dew Point 17 °F    
Average Humidity 84    
Maximum Humidity 93    
Minimum Humidity 64    
Precipitation  
Precipitation 0.00 in 0.04 in 0.65 in (1980)
Month to date precipitation 0.23  
Year to date precipitation 0.23  
Snow  
Snow 0.00 in - 8.00 in (1929)
Month to date snowfall  
Since 1 July snowfall  
Snow Depth -    
Sea Level Pressure  
Sea Level Pressure 30.01 in    
Wind  
Wind Speed 5 mph (WNW)    
Max Wind Speed 10 mph    
Max Gust Speed -    
Visibility 9 miles    
Events Snow    
T = Trace of Precipitation, MM = Missing Value Source: NWS Daily Summary

Daily Weather History Graph

Daily Weather History Graph

Search for Another Location

Airport:

Trip Planner

Search our weather history database for the weather conditions in past years. The results will help you decide how hot, cold, wet, or windy it might be!

Date:

Astronomy

Jan. 06, 2013 Rise Set
Actual Time 7:38 AM CST 4:32 PM CST
Civil Twilight 7:05 AM CST 5:05 PM CST
Nautical Twilight 6:27 AM CST 5:42 PM CST
Astronomical Twilight 5:52 AM CST 6:18 PM CST
Moon 1:46 AM CST (1/6) 12:04 PM CST (1/6)
Length of Visible Light 10h 00m
Length of Day
8h 53m
Waning Crescent, 33% of the Moon is Illuminated
Jan 6
Waning Crescent
Jan 11
New
Jan 18
First Quarter
Jan 26
Full
Feb 3
Last Quarter

Hourly Weather History & Observations

Time (CST) Temp. Windchill Dew Point Humidity Pressure Visibility Wind Dir Wind Speed Gust Speed Precip Events Conditions
12:15 AM 15.8 °F 8.6 °F 14.0 °F 93% 29.82 in 7.0 mi West 4.6 mph - N/A   Overcast
12:35 AM 17.6 °F 10.7 °F 14.0 °F 86% 29.82 in 7.0 mi WNW 4.6 mph - N/A   Overcast
12:55 AM 19.4 °F 11.5 °F 15.8 °F 86% 29.82 in 10.0 mi WNW 5.8 mph - N/A   Overcast
1:15 AM 19.4 °F 10.4 °F 17.6 °F 93% 29.83 in 10.0 mi WNW 6.9 mph - N/A   Overcast
1:35 AM 21.2 °F 13.6 °F 17.6 °F 86% 29.83 in 7.0 mi WNW 5.8 mph - N/A   Overcast
1:55 AM 21.2 °F 14.9 °F 19.4 °F 93% 29.84 in 5.0 mi WNW 4.6 mph - N/A   Overcast
2:15 AM 21.2 °F 13.6 °F 19.4 °F 93% 29.85 in 4.0 mi West 5.8 mph - N/A   Overcast
2:35 AM 21.2 °F 13.6 °F 19.4 °F 93% 29.85 in 4.0 mi West 5.8 mph - N/A   Overcast
2:55 AM 23.0 °F 13.9 °F 21.2 °F 93% 29.86 in 7.0 mi WNW 8.1 mph - N/A   Overcast
3:15 AM 23.0 °F 15.8 °F 21.2 °F 93% 29.86 in 10.0 mi WNW 5.8 mph - N/A   Overcast
3:35 AM 23.0 °F 14.7 °F 21.2 °F 93% 29.86 in 3.0 mi WNW 6.9 mph - N/A Snow Light Snow
3:55 AM 23.0 °F 13.9 °F 21.2 °F 93% 29.87 in 3.0 mi WNW 8.1 mph - N/A Snow Light Snow
4:15 AM 23.0 °F 14.7 °F 21.2 °F 93% 29.87 in 3.0 mi WNW 6.9 mph - N/A Snow Light Snow
4:35 AM 23.0 °F 13.9 °F 21.2 °F 93% 29.88 in 5.0 mi WNW 8.1 mph - N/A   Overcast
4:55 AM 23.0 °F 15.8 °F 21.2 °F 93% 29.88 in 5.0 mi NW 5.8 mph - N/A   Overcast
5:15 AM 23.0 °F 13.9 °F 21.2 °F 93% 29.90 in 7.0 mi NW 8.1 mph - N/A   Overcast
5:35 AM 23.0 °F 14.7 °F 21.2 °F 93% 29.90 in 10.0 mi NW 6.9 mph - N/A   Overcast
6:15 AM 24.8 °F 16.1 °F 21.2 °F 86% 29.93 in 10.0 mi NW 8.1 mph - N/A   Overcast
6:35 AM 24.8 °F 16.9 °F 21.2 °F 86% 29.94 in 10.0 mi NW 6.9 mph - N/A   Overcast
6:55 AM 24.8 °F 16.9 °F 21.2 °F 86% 29.94 in 7.0 mi NW 6.9 mph - N/A   Overcast
7:15 AM 23.0 °F 15.8 °F 21.2 °F 93% 29.96 in 7.0 mi WNW 5.8 mph - N/A   Overcast
7:35 AM 23.0 °F 14.7 °F 21.2 °F 93% 29.97 in 10.0 mi WNW 6.9 mph - N/A   Overcast
7:55 AM 24.8 °F 16.1 °F 21.2 °F 86% 29.98 in 10.0 mi WNW 8.1 mph - N/A   Overcast
8:15 AM 24.8 °F 17.9 °F 21.2 °F 86% 29.98 in 10.0 mi NW 5.8 mph - N/A   Overcast
8:35 AM 24.8 °F 19.1 °F 21.2 °F 86% 30.00 in 10.0 mi NW 4.6 mph - N/A   Overcast
8:55 AM 24.8 °F 17.9 °F 21.2 °F 86% 30.01 in 10.0 mi WNW 5.8 mph - N/A   Overcast
9:15 AM 24.8 °F 16.9 °F 21.2 °F 86% 30.02 in 10.0 mi NW 6.9 mph - N/A   Overcast
9:35 AM 24.8 °F 15.3 °F 21.2 °F 86% 30.04 in 10.0 mi NW 9.2 mph - N/A   Overcast
9:55 AM 26.6 °F 16.8 °F 21.2 °F 80% 30.04 in 10.0 mi WNW 10.4 mph - N/A   Overcast
10:15 AM 26.6 °F 17.5 °F 21.2 °F 80% 30.05 in 10.0 mi NW 9.2 mph - N/A   Overcast
10:35 AM 26.6 °F 16.8 °F 21.2 °F 80% 30.06 in 10.0 mi WNW 10.4 mph - N/A   Overcast
10:55 AM 26.6 °F 17.5 °F 21.2 °F 80% 30.06 in 10.0 mi WNW 9.2 mph - N/A   Overcast
11:35 AM 26.6 °F 19.1 °F 21.2 °F 80% 30.06 in 10.0 mi NW 6.9 mph - N/A   Overcast
12:35 PM 26.6 °F 21.2 °F 19.4 °F 74% 30.06 in 10.0 mi WNW 4.6 mph - N/A   Overcast
12:55 PM 26.6 °F 18.2 °F 19.4 °F 74% 30.06 in 10.0 mi NW 8.1 mph - N/A   Overcast
1:15 PM 28.4 °F 19.7 °F 19.4 °F 69% 30.06 in 10.0 mi NW 9.2 mph - N/A   Overcast
1:35 PM 28.4 °F 21.2 °F 19.4 °F 69% 30.06 in 10.0 mi WNW 6.9 mph - N/A   Overcast
1:55 PM 28.4 °F 20.4 °F 19.4 °F 69% 30.07 in 10.0 mi West 8.1 mph - N/A   Overcast
2:15 PM 28.4 °F 23.3 °F 17.6 °F 64% 30.08 in 10.0 mi NW 4.6 mph - N/A   Overcast
2:35 PM 26.6 °F 19.1 °F 17.6 °F 69% 30.09 in 10.0 mi West 6.9 mph - N/A   Overcast
2:55 PM 26.6 °F 20.0 °F 17.6 °F 69% 30.09 in 10.0 mi West 5.8 mph - N/A   Scattered Clouds
3:15 PM 28.4 °F 23.3 °F 17.6 °F 64% 30.11 in 10.0 mi NW 4.6 mph - N/A   Scattered Clouds
3:35 PM 26.6 °F - 17.6 °F 69% 30.11 in 10.0 mi Calm Calm - N/A   Mostly Cloudy
3:55 PM 26.6 °F 22.6 °F 17.6 °F 69% 30.12 in 10.0 mi West 3.5 mph - N/A   Scattered Clouds
4:15 PM 24.8 °F 17.9 °F 17.6 °F 74% 30.14 in 10.0 mi West 5.8 mph - N/A   Scattered Clouds
4:35 PM 24.8 °F - 17.6 °F 74% 30.12 in 10.0 mi Calm Calm - N/A   Clear
4:55 PM 23.0 °F - 15.8 °F 74% 30.12 in 10.0 mi Calm Calm - N/A   Clear
5:15 PM 21.2 °F - 15.8 °F 80% 30.12 in 10.0 mi Calm Calm - N/A   Clear
5:35 PM 19.4 °F - 14.0 °F 80% 30.12 in 10.0 mi Calm Calm - N/A   Clear
5:55 PM 17.6 °F - 14.0 °F 86% 30.11 in 10.0 mi Calm Calm - N/A   Clear
6:15 PM 17.6 °F - 14.0 °F 86% 30.12 in 10.0 mi Calm Calm - N/A   Clear
6:35 PM 12.2 °F - 10.4 °F 92% 30.14 in 10.0 mi Calm Calm - N/A   Clear
6:55 PM 19.4 °F 14.3 °F 14.0 °F 80% 30.14 in 10.0 mi South 3.5 mph - N/A   Clear
7:15 PM 15.8 °F 10.2 °F 12.2 °F 86% 30.12 in 10.0 mi South 3.5 mph - N/A   Clear
7:35 PM 17.6 °F - 14.0 °F 86% 30.12 in 10.0 mi Calm Calm - N/A   Clear
7:55 PM 15.8 °F - 12.2 °F 86% 30.12 in 10.0 mi Calm Calm - N/A   Clear
8:15 PM 14.0 °F - 12.2 °F 93% 30.12 in 10.0 mi Calm Calm - N/A   Clear
8:35 PM 14.0 °F - 10.4 °F 86% 30.12 in 10.0 mi Calm Calm - N/A   Clear
9:15 PM 14.0 °F - 12.2 °F 93% 30.12 in 10.0 mi Calm Calm - N/A   Clear
9:55 PM 14.0 °F - 10.4 °F 86% 30.12 in 10.0 mi Calm Calm - N/A   Clear
10:35 PM 10.4 °F - 8.6 °F 92% 30.12 in 10.0 mi Calm Calm - N/A   Clear
10:55 PM 10.4 °F 4.0 °F 6.8 °F 85% 30.12 in 10.0 mi South 3.5 mph - N/A   Clear
11:35 PM 10.4 °F 4.0 °F 6.8 °F 85% 30.11 in 10.0 mi South 3.5 mph - N/A   Clear
11:55 PM 10.4 °F - 6.8 °F 85% 30.10 in 10.0 mi Calm Calm - N/A   Clear